Time,TemperatureF,DewpointF,PressureIn,WindDirection,WindDirectionDegrees,WindSpeedMPH,WindSpeedGustMPH,Humidity,HourlyPrecipIn,Conditions,Clouds,dailyrainin,SolarRadiationWatts/m^2,SoftwareType,DateUTC
2013-02-14 00:00:00,28.5,25.4,29.80,SSW,202,0.0,2.0,88,0.00,CLR,,0.00,0.0,WeatherDisplay:10.37,2013-02-14 05:00:00,
2013-02-14 00:10:00,28.5,25.4,29.80,SSW,202,0.0,2.0,88,0.00,CLR,,0.00,0.0,WeatherDisplay:10.37,2013-02-14 05:10:00,
2013-02-14 00:20:00,28.2,25.1,29.80,SSW,202,0.0,2.0,88,0.00,CLR,,0.00,0.0,WeatherDisplay:10.37,2013-02-14 05:20:00,
2013-02-14 00:30:00,28.2,25.1,29.80,SSW,202,0.0,0.0,88,0.00,CLR,,0.00,0.0,WeatherDisplay:10.37,2013-02-14 05:30:00,
2013-02-14 00:40:00,27.9,25.1,29.79,SSW,202,0.0,2.0,89,0.00,CLR,,0.00,0.0,WeatherDisplay:10.37,2013-02-14 05:40:00,
2013-02-14 00:48:00,27.9,25.1,29.79,SW,216,0.9,10.5,89,0.00,SCT,,0.00,0.0,WeatherDisplay:10.37,2013-02-14 05:48:00,
2013-02-14 00:50:00,28.1,25.3,29.79,SW,216,0.0,1.5,89,0.00,SCT,,0.00,0.0,WeatherDisplay:10.37,2013-02-14 05:50:00,
2013-02-14 00:54:00,28.1,25.3,29.79,SW,216,0.0,0.0,89,0.00,SCT,,0.00,0.0,WeatherDisplay:10.37,2013-02-14 05:54:00,
2013-02-14 00:59:00,28.1,25.3,29.79,SW,216,0.0,0.0,89,0.00,SCT,,0.00,0.0,WeatherDisplay:10.37,2013-02-14 05:59:00,
2013-02-14 01:04:00,28.1,25.5,29.79,SW,216,0.0,0.0,90,0.00,SCT,,0.00,0.0,WeatherDisplay:10.37,2013-02-14 06:04:00,
2013-02-14 01:09:00,28.1,25.5,29.79,SW,230,0.2,1.1,90,0.00,SCT,,0.00,0.0,WeatherDisplay:10.37,2013-02-14 06:09:00,
2013-02-14 01:14:00,28.2,25.6,29.79,SW,220,0.0,0.0,90,0.00,SCT,,0.00,0.0,WeatherDisplay:10.37,2013-02-14 06:14:00,
2013-02-14 01:19:00,28.2,25.6,29.79,South,189,0.5,1.1,90,0.00,SCT,,0.00,0.0,WeatherDisplay:10.37,2013-02-14 06:19:00,
2013-02-14 01:24:00,28.2,25.6,29.79,South,189,0.0,1.1,90,0.00,SCT,,0.00,0.0,WeatherDisplay:10.37,2013-02-14 06:24:00,
2013-02-14 01:29:00,28.2,25.6,29.79,South,189,0.0,0.0,90,0.00,SCT,,0.00,0.0,WeatherDisplay:10.37,2013-02-14 06:29:00,
2013-02-14 01:34:00,28.1,25.5,29.79,South,189,0.0,0.0,90,0.00,SCT,,0.00,0.0,WeatherDisplay:10.37,2013-02-14 06:34:00,
2013-02-14 01:39:00,28.1,25.5,29.79,South,189,0.2,0.0,90,0.00,SCT,,0.00,0.0,WeatherDisplay:10.37,2013-02-14 06:39:00,
2013-02-14 01:44:00,28.2,25.6,29.79,SSW,202,0.7,1.5,90,0.00,SCT,,0.00,0.0,WeatherDisplay:10.37,2013-02-14 06:44:00,
2013-02-14 01:49:00,28.4,25.8,29.79,SSW,202,1.6,3.5,90,0.00,SCT,,0.00,0.0,WeatherDisplay:10.37,2013-02-14 06:49:00,
2013-02-14 01:54:00,28.5,25.9,29.79,SW,216,1.5,3.5,90,0.00,SCT,,0.00,0.0,WeatherDisplay:10.37,2013-02-14 06:54:00,
2013-02-14 01:59:00,28.5,25.9,29.79,SW,216,0.0,0.0,90,0.00,SCT,,0.00,0.0,WeatherDisplay:10.37,2013-02-14 06:59:00,
2013-02-14 02:04:00,28.5,25.9,29.78,SW,216,0.0,0.0,90,0.00,SCT,,0.00,0.0,WeatherDisplay:10.37,2013-02-14 07:04:00,
2013-02-14 02:09:00,28.5,25.9,29.78,SW,216,0.0,0.0,90,0.00,SCT,,0.00,0.0,WeatherDisplay:10.37,2013-02-14 07:09:00,
2013-02-14 02:14:00,28.5,25.9,29.78,SW,216,0.3,1.5,90,0.00,SCT,,0.00,0.0,WeatherDisplay:10.37,2013-02-14 07:14:00,
2013-02-14 02:19:00,28.7,26.1,29.78,SW,217,0.3,1.5,90,0.00,SCT,,0.00,0.0,WeatherDisplay:10.37,2013-02-14 07:19:00,
2013-02-14 02:24:00,28.8,26.2,29.78,SW,217,0.0,0.0,90,0.00,SCT,,0.00,0.0,WeatherDisplay:10.37,2013-02-14 07:24:00,
2013-02-14 02:29:00,28.8,26.2,29.78,WSW,240,1.1,3.0,90,0.00,SCT,,0.00,0.0,WeatherDisplay:10.37,2013-02-14 07:29:00,
2013-02-14 02:34:00,28.8,26.2,29.77,WSW,240,0.0,0.0,90,0.00,SCT,,0.00,0.0,WeatherDisplay:10.37,2013-02-14 07:34:00,
2013-02-14 02:39:00,28.8,26.2,29.77,WSW,240,0.0,0.0,90,0.00,SCT,,0.00,0.0,WeatherDisplay:10.37,2013-02-14 07:39:00,
2013-02-14 02:44:00,28.7,26.1,29.77,WSW,240,0.0,0.0,90,0.00,SCT,,0.00,0.0,WeatherDisplay:10.37,2013-02-14 07:44:00,
2013-02-14 02:49:00,28.5,25.9,29.77,WSW,240,0.0,0.0,90,0.00,SCT,,0.00,0.0,WeatherDisplay:10.37,2013-02-14 07:49:00,
2013-02-14 02:54:00,28.4,25.8,29.77,WSW,240,0.0,0.0,90,0.00,SCT,,0.00,0.0,WeatherDisplay:10.37,2013-02-14 07:54:00,
2013-02-14 02:59:00,28.2,25.6,29.77,WSW,240,0.0,0.0,90,0.00,SCT,,0.00,0.0,WeatherDisplay:10.37,2013-02-14 07:59:00,
2013-02-14 03:04:00,27.9,25.3,29.77,WSW,240,0.0,0.0,90,0.00,SCT,,0.00,0.0,WeatherDisplay:10.37,2013-02-14 08:04:00,
2013-02-14 03:09:00,27.6,25.1,29.77,WSW,240,0.0,0.0,90,0.00,SCT,,0.00,0.0,WeatherDisplay:10.37,2013-02-14 08:09:00,
2013-02-14 03:14:00,27.5,25.0,29.77,WSW,240,0.0,0.0,90,0.00,SCT,,0.00,0.0,WeatherDisplay:10.37,2013-02-14 08:14:00,
2013-02-14 03:19:00,27.5,25.0,29.77,WSW,240,0.0,0.0,90,0.00,SCT,,0.00,0.0,WeatherDisplay:10.37,2013-02-14 08:19:00,
2013-02-14 03:24:00,27.3,24.8,29.77,WSW,240,0.0,0.0,90,0.00,SCT,,0.00,0.0,WeatherDisplay:10.37,2013-02-14 08:24:00,
2013-02-14 03:29:00,27.3,25.0,29.77,WSW,240,0.0,0.0,91,0.00,SCT,,0.00,0.0,WeatherDisplay:10.37,2013-02-14 08:29:00,
2013-02-14 03:34:00,27.3,25.0,29.77,WSW,240,0.0,0.0,91,0.00,SCT,,0.00,0.0,WeatherDisplay:10.37,2013-02-14 08:34:00,
2013-02-14 03:39:00,27.5,25.2,29.77,WSW,240,0.0,0.0,91,0.00,SCT,,0.00,0.0,WeatherDisplay:10.37,2013-02-14 08:39:00,
2013-02-14 03:44:00,27.5,25.2,29.77,WSW,240,0.0,0.0,91,0.00,SCT,,0.00,0.0,WeatherDisplay:10.37,2013-02-14 08:44:00,
2013-02-14 03:49:00,27.5,25.2,29.77,WSW,240,0.0,0.0,91,0.00,SCT,,0.00,0.0,WeatherDisplay:10.37,2013-02-14 08:49:00,
2013-02-14 03:54:00,27.3,25.0,29.77,WSW,240,0.0,0.0,91,0.00,SCT,,0.00,0.0,WeatherDisplay:10.37,2013-02-14 08:54:00,
2013-02-14 03:59:00,27.2,24.9,29.77,WSW,240,0.0,0.0,91,0.00,SCT,,0.00,0.0,WeatherDisplay:10.37,2013-02-14 08:59:00,
2013-02-14 04:04:00,27.0,24.7,29.77,WSW,240,0.0,0.0,91,0.00,SCT,,0.00,0.0,WeatherDisplay:10.37,2013-02-14 09:04:00,
2013-02-14 04:09:00,26.9,24.6,29.77,WSW,240,0.0,0.0,91,0.00,SCT,,0.00,0.0,WeatherDisplay:10.37,2013-02-14 09:09:00,
2013-02-14 04:14:00,26.7,24.7,29.77,WSW,240,0.0,0.0,92,0.00,SCT,,0.00,0.0,WeatherDisplay:10.37,2013-02-14 09:14:00,
2013-02-14 04:19:00,26.7,24.7,29.77,WSW,240,0.0,0.0,92,0.00,SCT,,0.00,0.0,WeatherDisplay:10.37,2013-02-14 09:19:00,
2013-02-14 04:24:00,26.7,24.7,29.77,WSW,240,0.0,0.0,92,0.00,SCT,,0.00,0.0,WeatherDisplay:10.37,2013-02-14 09:24:00,
2013-02-14 04:29:00,26.7,24.7,29.77,WSW,240,0.0,0.0,92,0.00,SCT,,0.00,0.0,WeatherDisplay:10.37,2013-02-14 09:29:00,
2013-02-14 04:34:00,27.0,25.0,29.78,WSW,240,0.0,0.0,92,0.00,SCT,,0.00,0.0,WeatherDisplay:10.37,2013-02-14 09:34:00,
2013-02-14 04:39:00,27.2,25.2,29.78,WSW,240,0.3,1.5,92,0.00,SCT,,0.00,0.0,WeatherDisplay:10.37,2013-02-14 09:39:00,
2013-02-14 04:44:00,27.3,25.3,29.78,WSW,240,0.0,0.0,92,0.00,SCT,,0.00,0.0,WeatherDisplay:10.37,2013-02-14 09:44:00,
2013-02-14 04:49:00,27.6,25.8,29.77,WSW,241,0.0,0.0,93,0.00,SCT,,0.00,0.0,WeatherDisplay:10.37,2013-02-14 09:49:00,
2013-02-14 04:54:00,27.6,25.8,29.77,WSW,241,0.0,0.0,93,0.00,SCT,,0.00,0.0,WeatherDisplay:10.37,2013-02-14 09:54:00,
2013-02-14 04:59:00,27.6,25.8,29.77,WSW,241,0.0,0.0,93,0.00,SCT,,0.00,0.0,WeatherDisplay:10.37,2013-02-14 09:59:00,
2013-02-14 05:04:00,27.8,26.0,29.77,WSW,253,0.0,0.0,93,0.00,SCT,,0.00,0.0,WeatherDisplay:10.37,2013-02-14 10:04:00,
2013-02-14 05:09:00,27.8,26.0,29.77,WSW,253,0.0,0.0,93,0.00,SCT,,0.00,0.0,WeatherDisplay:10.37,2013-02-14 10:09:00,
2013-02-14 05:14:00,27.8,26.0,29.77,WSW,253,0.0,0.0,93,0.00,SCT,,0.00,0.0,WeatherDisplay:10.37,2013-02-14 10:14:00,
2013-02-14 05:19:00,27.8,26.0,29.78,WSW,253,0.0,0.0,93,0.00,SCT,,0.00,0.0,WeatherDisplay:10.37,2013-02-14 10:19:00,
2013-02-14 05:24:00,27.8,26.0,29.78,WSW,253,0.0,0.0,93,0.00,SCT,,0.00,0.0,WeatherDisplay:10.37,2013-02-14 10:24:00,
2013-02-14 05:29:00,27.9,26.1,29.78,South,186,0.7,1.5,93,0.00,SCT,,0.00,0.0,WeatherDisplay:10.37,2013-02-14 10:29:00,
2013-02-14 05:34:00,28.2,26.4,29.77,South,186,0.0,0.0,93,0.00,SCT,,0.00,0.0,WeatherDisplay:10.37,2013-02-14 10:34:00,
2013-02-14 05:39:00,28.2,26.4,29.77,South,186,0.0,0.0,93,0.00,SCT,,0.00,0.0,WeatherDisplay:10.37,2013-02-14 10:39:00,
2013-02-14 05:44:00,28.4,26.9,29.77,South,186,0.0,0.0,94,0.00,SCT,,0.00,0.0,WeatherDisplay:10.37,2013-02-14 10:44:00,
2013-02-14 05:49:00,28.4,26.9,29.77,South,186,0.0,0.0,94,0.00,SCT,,0.00,0.0,WeatherDisplay:10.37,2013-02-14 10:49:00,
2013-02-14 05:54:00,28.7,27.2,29.77,SSW,195,0.8,1.1,94,0.00,SCT,,0.00,0.0,WeatherDisplay:10.37,2013-02-14 10:54:00,
2013-02-14 05:59:00,29.0,27.5,29.77,SW,223,1.8,3.5,94,0.00,SCT,,0.00,0.0,WeatherDisplay:10.37,2013-02-14 10:59:00,
2013-02-14 06:04:00,29.5,28.0,29.77,SW,224,1.2,3.5,94,0.00,SCT,,0.00,0.0,WeatherDisplay:10.37,2013-02-14 11:04:00,
2013-02-14 06:09:00,29.8,28.3,29.77,SW,224,0.7,1.1,94,0.00,SCT,,0.00,0.0,WeatherDisplay:10.37,2013-02-14 11:09:00,
2013-02-14 06:14:00,30.0,28.5,29.77,SW,224,0.0,0.0,94,0.00,SCT,,0.00,0.0,WeatherDisplay:10.37,2013-02-14 11:14:00,
2013-02-14 06:19:00,30.1,28.6,29.77,SW,224,0.5,1.1,94,0.00,SCT,,0.00,0.0,WeatherDisplay:10.37,2013-02-14 11:19:00,
2013-02-14 06:24:00,30.1,28.6,29.77,SW,224,0.0,0.0,94,0.00,SCT,,0.00,0.0,WeatherDisplay:10.37,2013-02-14 11:24:00,
2013-02-14 06:29:00,30.1,28.6,29.77,SW,230,0.0,3.5,94,0.00,SCT,,0.00,0.0,WeatherDisplay:10.37,2013-02-14 11:29:00,
2013-02-14 06:34:00,30.1,28.3,29.77,SW,230,0.1,1.5,93,0.00,SCT,,0.00,0.0,WeatherDisplay:10.37,2013-02-14 11:34:00,
2013-02-14 06:39:00,30.1,28.3,29.77,SW,230,0.0,0.0,93,0.00,SCT,,0.00,0.0,WeatherDisplay:10.37,2013-02-14 11:39:00,
2013-02-14 06:44:00,30.3,28.5,29.77,SW,230,0.0,0.0,93,0.00,SCT,,0.00,0.0,WeatherDisplay:10.37,2013-02-14 11:44:00,
2013-02-14 06:49:00,30.3,28.5,29.78,SW,230,0.0,0.0,93,0.00,SCT,,0.00,0.0,WeatherDisplay:10.37,2013-02-14 11:49:00,
2013-02-14 06:54:00,30.4,28.6,29.78,SW,229,1.6,3.0,93,0.00,SCT,,0.00,0.0,WeatherDisplay:10.37,2013-02-14 11:54:00,
2013-02-14 06:59:00,30.6,28.8,29.78,SW,229,0.0,0.0,93,0.00,SCT,,0.00,0.0,WeatherDisplay:10.37,2013-02-14 11:59:00,
2013-02-14 07:04:00,30.7,28.9,29.77,SW,229,0.0,0.0,93,0.00,BKN,,0.00,0.0,WeatherDisplay:10.37,2013-02-14 12:04:00,
2013-02-14 07:09:00,30.7,28.9,29.77,SW,229,0.0,0.0,93,0.00,BKN,,0.00,0.0,WeatherDisplay:10.37,2013-02-14 12:09:00,
2013-02-14 07:14:00,30.7,28.9,29.77,SW,229,0.0,0.0,93,0.00,BKN,,0.00,0.0,WeatherDisplay:10.37,2013-02-14 12:14:00,
2013-02-14 07:19:00,30.9,29.1,29.78,SW,229,0.0,0.0,93,0.00,BKN,,0.00,0.0,WeatherDisplay:10.37,2013-02-14 12:19:00,
2013-02-14 07:24:00,30.9,29.1,29.78,SW,229,0.0,0.0,93,0.00,BKN,,0.00,0.0,WeatherDisplay:10.37,2013-02-14 12:24:00,
2013-02-14 07:29:00,31.2,29.1,29.78,SW,229,0.0,0.0,92,0.00,BKN,,0.00,0.0,WeatherDisplay:10.37,2013-02-14 12:29:00,
2013-02-14 07:34:00,31.2,29.1,29.78,SW,229,0.0,0.0,92,0.00,BKN,,0.00,5.0,WeatherDisplay:10.37,2013-02-14 12:34:00,
2013-02-14 07:39:00,31.3,29.2,29.78,SW,230,0.0,0.0,92,0.00,BKN,,0.00,9.0,WeatherDisplay:10.37,2013-02-14 12:39:00,
2013-02-14 07:44:00,31.5,29.4,29.78,SW,230,0.0,0.0,92,0.00,BKN,,0.00,14.0,WeatherDisplay:10.37,2013-02-14 12:44:00,
2013-02-14 07:49:00,31.6,29.5,29.78,SW,230,0.0,0.0,92,0.00,BKN,,0.00,25.0,WeatherDisplay:10.37,2013-02-14 12:49:00,
2013-02-14 07:54:00,31.8,29.7,29.78,SW,230,0.0,0.0,92,0.00,BKN,,0.00,35.0,WeatherDisplay:10.37,2013-02-14 12:54:00,
2013-02-14 07:59:00,32.1,30.0,29.78,SW,230,0.0,0.0,92,0.00,BKN,,0.00,40.0,WeatherDisplay:10.37,2013-02-14 12:59:00,
2013-02-14 08:04:00,32.2,30.1,29.78,SW,230,1.0,3.5,92,0.00,OVC,,0.00,40.0,WeatherDisplay:10.37,2013-02-14 13:04:00,
2013-02-14 08:09:00,32.5,30.2,29.78,SSE,158,1.7,3.5,91,0.00,OVC,,0.00,37.0,WeatherDisplay:10.37,2013-02-14 13:09:00,
2013-02-14 08:14:00,32.7,30.4,29.78,SW,234,2.7,3.0,91,0.00,OVC,,0.00,35.0,WeatherDisplay:10.37,2013-02-14 13:14:00,
2013-02-14 08:19:00,32.8,30.5,29.78,SW,224,2.1,4.6,91,0.00,OVC,,0.00,39.0,WeatherDisplay:10.37,2013-02-14 13:19:00,
2013-02-14 08:24:00,32.9,30.3,29.78,SW,224,1.5,3.5,90,0.00,OVC,,0.00,48.0,WeatherDisplay:10.37,2013-02-14 13:24:00,
2013-02-14 08:29:00,33.1,30.5,29.78,SW,236,0.7,1.1,90,0.00,OVC,,0.00,48.0,WeatherDisplay:10.37,2013-02-14 13:29:00,
2013-02-14 08:34:00,33.2,30.6,29.79,South,169,0.6,1.5,90,0.00,OVC,,0.00,46.0,WeatherDisplay:10.37,2013-02-14 13:34:00,
2013-02-14 08:39:00,33.4,30.8,29.79,SSE,168,0.0,3.5,90,0.00,OVC,,0.00,53.0,WeatherDisplay:10.37,2013-02-14 13:39:00,
2013-02-14 08:44:00,33.5,30.9,29.79,West,271,1.5,3.5,90,0.00,OVC,,0.00,74.0,WeatherDisplay:10.37,2013-02-14 13:44:00,
2013-02-14 08:49:00,33.7,30.8,29.78,South,176,0.2,1.1,89,0.00,OVC,,0.00,72.0,WeatherDisplay:10.37,2013-02-14 13:49:00,
2013-02-14 08:54:00,33.8,30.9,29.78,SSW,193,0.5,6.0,89,0.00,OVC,,0.00,56.0,WeatherDisplay:10.37,2013-02-14 13:54:00,
2013-02-14 08:59:00,34.0,31.1,29.78,SSW,193,1.5,1.5,89,0.00,OVC,,0.00,58.0,WeatherDisplay:10.37,2013-02-14 13:59:00,
2013-02-14 09:04:00,34.1,31.2,29.79,SSW,193,1.3,1.3,89,0.00,OVC,,0.00,69.0,WeatherDisplay:10.37,2013-02-14 14:04:00,
2013-02-14 09:09:00,34.3,31.4,29.79,South,174,4.8,10.5,89,0.00,OVC,,0.00,77.0,WeatherDisplay:10.37,2013-02-14 14:09:00,
2013-02-14 09:14:00,34.6,31.4,29.79,SW,222,1.5,4.6,88,0.00,OVC,,0.00,83.0,WeatherDisplay:10.37,2013-02-14 14:14:00,
2013-02-14 09:19:00,34.7,31.5,29.79,WSW,254,0.6,3.0,88,0.00,OVC,,0.00,91.0,WeatherDisplay:10.37,2013-02-14 14:19:00,
2013-02-14 09:24:00,34.9,31.7,29.79,South,169,2.3,3.5,88,0.00,OVC,,0.00,106.0,WeatherDisplay:10.37,2013-02-14 14:24:00,
2013-02-14 09:29:00,35.0,31.5,29.79,WSW,248,0.3,1.5,87,0.00,OVC,,0.00,109.0,WeatherDisplay:10.37,2013-02-14 14:29:00,
2013-02-14 09:34:00,35.3,31.8,29.78,WSW,257,8.0,10.5,87,0.00,OVC,,0.00,100.0,WeatherDisplay:10.37,2013-02-14 14:34:00,
2013-02-14 09:39:00,35.3,31.8,29.78,NW,309,2.3,8.1,87,0.00,OVC,,0.00,99.0,WeatherDisplay:10.37,2013-02-14 14:39:00,
2013-02-14 09:44:00,35.5,31.7,29.78,WSW,241,4.0,4.6,86,0.00,OVC,,0.00,116.0,WeatherDisplay:10.37,2013-02-14 14:44:00,
2013-02-14 09:49:00,35.6,31.8,29.78,SSE,168,6.2,9.2,86,0.00,OVC,,0.00,164.0,WeatherDisplay:10.37,2013-02-14 14:49:00,
2013-02-14 09:54:00,36.0,32.2,29.78,SSW,199,6.8,10.4,86,0.00,OVC,,0.00,202.0,WeatherDisplay:10.37,2013-02-14 14:54:00,
2013-02-14 09:59:00,36.3,32.5,29.78,South,172,8.1,8.1,86,0.00,OVC,,0.00,190.0,WeatherDisplay:10.37,2013-02-14 14:59:00,
2013-02-14 10:04:00,36.5,32.4,29.77,WSW,246,5.6,5.6,85,0.00,OVC,,0.00,188.0,WeatherDisplay:10.37,2013-02-14 15:04:00,
2013-02-14 10:09:00,36.6,32.5,29.77,South,175,7.6,9.2,85,0.00,OVC,,0.00,202.0,WeatherDisplay:10.37,2013-02-14 15:09:00,
2013-02-14 10:14:00,37.0,32.9,29.77,SW,215,4.5,4.6,85,0.00,OVC,,0.00,185.0,WeatherDisplay:10.37,2013-02-14 15:14:00,
2013-02-14 10:19:00,37.2,32.8,29.77,SSE,164,2.8,3.5,84,0.00,OVC,,0.00,211.0,WeatherDisplay:10.37,2013-02-14 15:19:00,
2013-02-14 10:24:00,37.3,32.6,29.77,WSW,244,2.4,8.1,83,0.00,OVC,,0.00,195.0,WeatherDisplay:10.37,2013-02-14 15:24:00,
2013-02-14 10:29:00,37.5,32.8,29.77,SSE,168,4.5,8.1,83,0.00,OVC,,0.00,164.0,WeatherDisplay:10.37,2013-02-14 15:29:00,
2013-02-14 10:34:00,37.5,32.5,29.77,South,176,5.2,9.2,82,0.00,OVC,,0.00,137.0,WeatherDisplay:10.37,2013-02-14 15:34:00,
2013-02-14 10:39:00,37.3,32.3,29.77,West,274,4.1,4.6,82,0.00,OVC,,0.00,130.0,WeatherDisplay:10.37,2013-02-14 15:39:00,
2013-02-14 10:44:00,37.3,32.3,29.77,SSE,155,6.2,9.2,82,0.00,OVC,,0.00,113.0,WeatherDisplay:10.37,2013-02-14 15:44:00,
2013-02-14 10:49:00,37.3,32.3,29.76,SSW,196,4.1,4.6,82,0.00,OVC,,0.00,121.0,WeatherDisplay:10.37,2013-02-14 15:49:00,
2013-02-14 10:54:00,37.2,32.2,29.76,SSE,160,4.9,4.9,82,0.00,OVC,,0.00,118.0,WeatherDisplay:10.37,2013-02-14 15:54:00,
2013-02-14 10:59:00,37.2,32.2,29.76,South,181,6.2,9.2,82,0.00,OVC,,0.00,109.0,WeatherDisplay:10.37,2013-02-14 15:59:00,
2013-02-14 11:04:00,37.2,32.5,29.76,SSE,151,3.7,9.2,83,0.00,OVC,,0.00,111.0,WeatherDisplay:10.37,2013-02-14 16:04:00,
2013-02-14 11:09:00,37.0,32.6,29.76,SSE,155,6.8,9.2,84,0.00,OVC,,0.00,99.0,WeatherDisplay:10.37,2013-02-14 16:09:00,
2013-02-14 11:14:00,36.9,32.8,29.76,SSW,200,5.0,8.1,85,0.00,OVC,,0.00,114.0,WeatherDisplay:10.37,2013-02-14 16:14:00,
2013-02-14 11:19:00,36.9,33.1,29.76,South,186,5.9,5.9,86,0.00,OVC,,0.00,123.0,WeatherDisplay:10.37,2013-02-14 16:19:00,
2013-02-14 11:24:00,36.9,33.4,29.76,ESE,120,5.1,5.8,87,0.00,OVC,,0.00,127.0,WeatherDisplay:10.37,2013-02-14 16:24:00,
2013-02-14 11:29:00,36.8,33.3,29.76,ESE,116,7.9,8.1,87,0.00,OVC,,0.00,113.0,WeatherDisplay:10.37,2013-02-14 16:29:00,
2013-02-14 11:34:00,36.8,33.6,29.75,SE,131,2.6,4.6,88,0.00,OVC,,0.00,95.0,WeatherDisplay:10.37,2013-02-14 16:34:00,
2013-02-14 11:39:00,36.6,33.4,29.75,ESE,102,4.0,9.2,88,0.00,OVC,,0.00,79.0,WeatherDisplay:10.37,2013-02-14 16:39:00,
2013-02-14 11:44:00,36.5,33.6,29.75,ESE,110,6.6,9.2,89,0.00,OVC,,0.00,83.0,WeatherDisplay:10.37,2013-02-14 16:44:00,
2013-02-14 11:49:00,36.5,33.6,29.74,SSW,196,6.5,8.1,89,0.00,OVC,,0.00,153.0,WeatherDisplay:10.37,2013-02-14 16:49:00,
2013-02-14 11:54:00,36.8,34.1,29.74,SW,215,4.2,4.6,90,0.00,OVC,,0.00,234.0,WeatherDisplay:10.37,2013-02-14 16:54:00,
2013-02-14 11:59:00,37.3,34.9,29.74,ESE,106,9.4,10.4,91,0.00,OVC,,0.00,236.0,WeatherDisplay:10.37,2013-02-14 16:59:00,
2013-02-14 12:04:00,38.0,35.6,29.74,SSE,164,5.4,8.1,91,0.00,OVC,,0.00,260.0,WeatherDisplay:10.37,2013-02-14 17:04:00,
2013-02-14 12:09:00,38.6,35.9,29.74,SW,215,5.5,5.5,90,0.00,OVC,,0.00,336.0,WeatherDisplay:10.37,2013-02-14 17:09:00,
2013-02-14 12:14:00,39.2,36.2,29.74,SSE,161,8.1,9.2,89,0.00,OVC,,0.00,336.0,WeatherDisplay:10.37,2013-02-14 17:14:00,
2013-02-14 12:19:00,39.3,36.0,29.74,SSE,157,5.3,5.3,88,0.00,OVC,,0.00,255.0,WeatherDisplay:10.37,2013-02-14 17:19:00,
2013-02-14 12:24:00,39.2,35.4,29.74,South,171,12.1,12.1,86,0.00,OVC,,0.00,229.0,WeatherDisplay:10.37,2013-02-14 17:24:00,
2013-02-14 12:29:00,39.2,35.1,29.74,East,80,8.0,9.2,85,0.00,OVC,,0.00,206.0,WeatherDisplay:10.37,2013-02-14 17:29:00,
2013-02-14 12:34:00,39.3,34.9,29.73,ESE,117,5.5,9.2,84,0.00,OVC,,0.00,280.0,WeatherDisplay:10.37,2013-02-14 17:34:00,
2013-02-14 12:39:00,40.1,35.7,29.73,East,99,5.8,10.5,84,0.00,OVC,,0.00,327.0,WeatherDisplay:10.37,2013-02-14 17:39:00,
2013-02-14 12:44:00,40.5,35.4,29.73,SSE,151,11.3,16.5,82,0.00,OVC,,0.00,320.0,WeatherDisplay:10.37,2013-02-14 17:44:00,
2013-02-14 12:49:00,40.3,34.9,29.72,SSE,164,8.6,10.5,81,0.00,OVC,,0.00,255.0,WeatherDisplay:10.37,2013-02-14 17:49:00,
2013-02-14 12:54:00,40.2,34.8,29.72,South,185,4.0,4.6,81,0.00,OVC,,0.00,172.0,WeatherDisplay:10.37,2013-02-14 17:54:00,
2013-02-14 12:59:00,40.1,34.7,29.72,SSW,193,8.6,9.2,81,0.00,OVC,,0.00,181.0,WeatherDisplay:10.37,2013-02-14 17:59:00,
2013-02-14 13:04:00,40.1,34.4,29.72,ESE,116,12.0,16.1,80,0.00,OVC,,0.00,174.0,WeatherDisplay:10.37,2013-02-14 18:04:00,
2013-02-14 13:09:00,40.2,34.5,29.72,South,182,6.1,8.1,80,0.00,OVC,,0.00,202.0,WeatherDisplay:10.37,2013-02-14 18:09:00,
2013-02-14 13:14:00,40.3,34.6,29.72,SSE,152,7.2,9.0,80,0.00,OVC,,0.00,125.0,WeatherDisplay:10.37,2013-02-14 18:14:00,
2013-02-14 13:19:00,40.3,34.6,29.71,West,277,4.5,4.6,80,0.00,OVC,,0.00,83.0,WeatherDisplay:10.37,2013-02-14 18:19:00,
2013-02-14 13:24:00,40.5,34.5,29.71,ESE,114,7.5,10.4,79,0.00,OVC,,0.00,72.0,WeatherDisplay:10.37,2013-02-14 18:24:00,
2013-02-14 13:29:00,40.5,34.2,29.71,ESE,117,5.6,9.2,78,0.00,OVC,,0.00,67.0,WeatherDisplay:10.37,2013-02-14 18:29:00,
2013-02-14 13:34:00,40.5,34.2,29.70,SW,217,3.9,4.6,78,0.00,OVC,,0.00,77.0,WeatherDisplay:10.37,2013-02-14 18:34:00,
2013-02-14 13:39:00,40.5,34.2,29.70,SW,223,8.6,10.5,78,0.00,OVC,,0.00,86.0,WeatherDisplay:10.37,2013-02-14 18:39:00,
2013-02-14 13:44:00,40.5,33.9,29.70,SW,224,8.8,10.4,77,0.00,OVC,,0.00,65.0,WeatherDisplay:10.37,2013-02-14 18:44:00,
2013-02-14 13:49:00,40.5,34.2,29.70,SW,216,7.7,9.2,78,0.00,OVC,,0.00,55.0,WeatherDisplay:10.37,2013-02-14 18:49:00,
2013-02-14 13:54:00,40.2,34.2,29.70,SSE,155,7.3,10.4,79,0.00,OVC,,0.00,46.0,WeatherDisplay:10.37,2013-02-14 18:54:00,
2013-02-14 13:59:00,40.1,34.4,29.70,SW,232,4.3,4.6,80,0.00,OVC,,0.00,49.0,WeatherDisplay:10.37,2013-02-14 18:59:00,
2013-02-14 14:04:00,39.8,34.4,29.70,SW,216,4.8,5.8,81,0.00,OVC,,0.00,44.0,WeatherDisplay:10.37,2013-02-14 19:04:00,
2013-02-14 14:09:00,39.5,34.5,29.70,West,274,6.9,9.2,82,0.00,OVC,,0.00,49.0,WeatherDisplay:10.37,2013-02-14 19:09:00,
2013-02-14 14:14:00,39.3,34.6,29.70,WSW,258,14.8,15.0,83,0.00,OVC,,0.00,42.0,WeatherDisplay:10.37,2013-02-14 19:14:00,
2013-02-14 14:19:00,39.3,34.6,29.71,South,184,6.3,16.1,83,0.00,OVC,,0.00,44.0,WeatherDisplay:10.37,2013-02-14 19:19:00,
2013-02-14 14:24:00,39.3,34.6,29.71,SSW,195,6.9,9.2,83,0.00,OVC,,0.00,42.0,WeatherDisplay:10.37,2013-02-14 19:24:00,
2013-02-14 14:29:00,39.3,34.9,29.71,ESE,112,2.5,4.6,84,0.00,OVC,,0.00,49.0,WeatherDisplay:10.37,2013-02-14 19:29:00,
2013-02-14 14:34:00,39.3,34.9,29.70,SSE,162,6.9,10.5,84,0.00,OVC,,0.00,48.0,WeatherDisplay:10.37,2013-02-14 19:34:00,
2013-02-14 14:39:00,39.3,34.9,29.70,SW,232,4.6,9.2,84,0.00,OVC,,0.00,51.0,WeatherDisplay:10.37,2013-02-14 19:39:00,
2013-02-14 14:44:00,39.5,35.1,29.70,SW,226,8.1,11.5,84,0.00,OVC,,0.00,53.0,WeatherDisplay:10.37,2013-02-14 19:44:00,
2013-02-14 14:49:00,39.6,34.9,29.69,SW,230,2.9,4.6,83,0.00,OVC,,0.00,40.0,WeatherDisplay:10.37,2013-02-14 19:49:00,
2013-02-14 14:54:00,39.6,34.6,29.69,SSW,212,13.2,18.4,82,0.00,OVC,,0.00,49.0,WeatherDisplay:10.37,2013-02-14 19:54:00,
2013-02-14 14:59:00,39.8,35.1,29.69,South,176,8.0,9.2,83,0.00,OVC,,0.00,49.0,WeatherDisplay:10.37,2013-02-14 19:59:00,
2013-02-14 15:04:00,39.8,34.8,29.69,SW,232,4.0,7.5,82,0.00,OVC,,0.00,33.0,WeatherDisplay:10.37,2013-02-14 20:04:00,
2013-02-14 15:09:00,39.8,34.8,29.69,SW,224,8.1,9.2,82,0.00,OVC,,0.00,51.0,WeatherDisplay:10.37,2013-02-14 20:09:00,
2013-02-14 15:14:00,39.8,34.8,29.69,SW,233,6.3,15.0,82,0.00,OVC,,0.00,49.0,WeatherDisplay:10.37,2013-02-14 20:14:00,
2013-02-14 15:19:00,39.9,34.9,29.69,East,97,3.3,7.5,82,0.00,OVC,,0.00,48.0,WeatherDisplay:10.37,2013-02-14 20:19:00,
2013-02-14 15:24:00,39.9,34.9,29.69,SSW,213,11.6,11.6,82,0.00,OVC,,0.00,35.0,WeatherDisplay:10.37,2013-02-14 20:24:00,
2013-02-14 15:29:00,40.1,35.0,29.69,SSE,158,3.0,4.6,82,0.00,OVC,,0.00,30.0,WeatherDisplay:10.37,2013-02-14 20:29:00,
2013-02-14 15:34:00,40.1,35.0,29.70,WSW,241,7.8,12.0,82,0.00,OVC,,0.00,32.0,WeatherDisplay:10.37,2013-02-14 20:34:00,
2013-02-14 15:39:00,40.1,35.0,29.70,WNW,288,5.6,12.0,82,0.00,OVC,,0.00,26.0,WeatherDisplay:10.37,2013-02-14 20:39:00,
2013-02-14 15:44:00,40.1,35.0,29.70,WSW,248,3.8,3.8,82,0.00,OVC,,0.00,32.0,WeatherDisplay:10.37,2013-02-14 20:44:00,
2013-02-14 15:49:00,40.1,35.0,29.70,SW,224,3.7,9.2,82,0.00,OVC,,0.00,21.0,WeatherDisplay:10.37,2013-02-14 20:49:00,
2013-02-14 15:54:00,40.1,35.0,29.70,West,268,9.2,13.8,82,0.00,OVC,,0.00,39.0,WeatherDisplay:10.37,2013-02-14 20:54:00,
2013-02-14 15:59:00,40.1,35.0,29.70,SW,222,3.0,4.6,82,0.00,OVC,,0.00,28.0,WeatherDisplay:10.37,2013-02-14 20:59:00,
2013-02-14 16:04:00,40.1,35.0,29.69,WSW,247,7.0,8.1,82,0.00,OVC,,0.00,16.0,WeatherDisplay:10.37,2013-02-14 21:04:00,
2013-02-14 16:09:00,40.1,35.0,29.69,WNW,295,5.0,9.2,82,0.00,OVC,,0.00,12.0,WeatherDisplay:10.37,2013-02-14 21:09:00,
2013-02-14 16:14:00,40.1,35.0,29.69,WSW,250,2.9,8.1,82,0.00,OVC,,0.00,11.0,WeatherDisplay:10.37,2013-02-14 21:14:00,
2013-02-14 16:19:00,39.9,35.2,29.70,WSW,258,2.6,4.6,83,0.00,OVC,,0.00,5.0,WeatherDisplay:10.37,2013-02-14 21:19:00,
2013-02-14 16:24:00,39.8,35.4,29.70,WSW,251,3.0,3.5,84,0.00,OVC,,0.00,5.0,WeatherDisplay:10.37,2013-02-14 21:24:00,
2013-02-14 16:29:00,39.6,35.5,29.70,ESE,104,3.1,3.5,85,0.00,OVC,,0.00,7.0,WeatherDisplay:10.37,2013-02-14 21:29:00,
2013-02-14 16:34:00,39.6,35.5,29.70,SW,233,4.6,8.1,85,0.00,OVC,,0.00,9.0,WeatherDisplay:10.37,2013-02-14 21:34:00,
2013-02-14 16:39:00,39.6,35.5,29.70,West,263,4.8,8.1,85,0.00,OVC,,0.00,9.0,WeatherDisplay:10.37,2013-02-14 21:39:00,
2013-02-14 16:44:00,39.6,35.5,29.70,West,272,2.6,4.6,85,0.00,OVC,,0.00,9.0,WeatherDisplay:10.37,2013-02-14 21:44:00,
2013-02-14 16:49:00,39.6,35.5,29.70,WNW,282,7.5,9.2,85,0.00,OVC,,0.00,7.0,WeatherDisplay:10.37,2013-02-14 21:49:00,
2013-02-14 16:54:00,39.8,35.7,29.70,WSW,256,9.0,10.4,85,0.00,OVC,,0.00,7.0,WeatherDisplay:10.37,2013-02-14 21:54:00,
2013-02-14 16:59:00,39.9,35.8,29.70,WNW,294,2.5,3.5,85,0.00,OVC,,0.00,5.0,WeatherDisplay:10.37,2013-02-14 21:59:00,
2013-02-14 17:04:00,39.9,35.5,29.70,WNW,291,2.5,3.5,84,0.00,OVC,,0.00,7.0,WeatherDisplay:10.37,2013-02-14 22:04:00,
2013-02-14 17:09:00,39.9,35.5,29.70,WSW,246,4.9,9.2,84,0.00,OVC,,0.00,12.0,WeatherDisplay:10.37,2013-02-14 22:09:00,
2013-02-14 17:14:00,39.9,35.5,29.70,WSW,247,2.4,4.6,84,0.00,OVC,,0.00,7.0,WeatherDisplay:10.37,2013-02-14 22:14:00,
2013-02-14 17:19:00,39.9,35.2,29.70,West,281,3.9,3.9,83,0.00,OVC,,0.00,0.0,WeatherDisplay:10.37,2013-02-14 22:19:00,
2013-02-14 17:24:00,40.1,35.4,29.70,WSW,244,3.7,4.6,83,0.00,OVC,,0.00,0.0,WeatherDisplay:10.37,2013-02-14 22:24:00,
2013-02-14 17:29:00,40.2,34.8,29.70,South,184,10.0,16.1,81,0.00,OVC,,0.00,0.0,WeatherDisplay:10.37,2013-02-14 22:29:00,
2013-02-14 17:34:00,40.2,34.8,29.71,WSW,248,6.7,8.1,81,0.00,OVC,,0.00,0.0,WeatherDisplay:10.37,2013-02-14 22:34:00,
2013-02-14 17:39:00,40.1,34.7,29.71,WNW,301,8.5,8.5,81,0.00,OVC,,0.00,0.0,WeatherDisplay:10.37,2013-02-14 22:39:00,
2013-02-14 17:44:00,40.1,34.7,29.71,NNW,346,3.9,6.0,81,0.00,OVC,,0.00,0.0,WeatherDisplay:10.37,2013-02-14 22:44:00,
2013-02-14 17:49:00,39.9,34.5,29.72,SW,229,10.7,13.5,81,0.00,OVC,,0.00,7.0,WeatherDisplay:10.37,2013-02-14 22:49:00,
2013-02-14 17:54:00,39.8,34.1,29.72,SW,234,9.3,9.3,80,0.00,OVC,,0.00,5.0,WeatherDisplay:10.37,2013-02-14 22:54:00,
2013-02-14 17:59:00,39.8,33.8,29.72,WNW,285,5.9,8.1,79,0.00,OVC,,0.00,0.0,WeatherDisplay:10.37,2013-02-14 22:59:00,
2013-02-14 18:04:00,39.8,33.2,29.73,West,271,6.3,9.2,77,0.00,OVC,,0.00,0.0,WeatherDisplay:10.37,2013-02-14 23:04:00,
2013-02-14 18:09:00,39.8,32.5,29.73,West,275,11.9,11.9,75,0.00,OVC,,0.00,0.0,WeatherDisplay:10.37,2013-02-14 23:09:00,
2013-02-14 18:14:00,39.6,32.0,29.73,WNW,295,7.1,9.2,74,0.00,OVC,,0.00,0.0,WeatherDisplay:10.37,2013-02-14 23:14:00,
2013-02-14 18:19:00,39.6,31.7,29.73,WNW,287,9.2,9.2,73,0.00,OVC,,0.00,0.0,WeatherDisplay:10.37,2013-02-14 23:19:00,
2013-02-14 18:24:00,39.3,31.4,29.73,West,277,4.2,9.2,73,0.00,OVC,,0.00,0.0,WeatherDisplay:10.37,2013-02-14 23:24:00,
2013-02-14 18:29:00,39.1,31.2,29.73,WSW,256,5.8,10.4,73,0.00,OVC,,0.00,0.0,WeatherDisplay:10.37,2013-02-14 23:29:00,
2013-02-14 18:34:00,39.1,30.8,29.74,WNW,285,6.1,10.4,72,0.00,OVC,,0.00,0.0,WeatherDisplay:10.37,2013-02-14 23:34:00,
2013-02-14 18:39:00,38.9,30.6,29.74,WNW,289,5.6,7.5,72,0.00,OVC,,0.00,0.0,WeatherDisplay:10.37,2013-02-14 23:39:00,
2013-02-14 18:44:00,38.8,30.5,29.74,WSW,243,5.1,9.2,72,0.00,OVC,,0.00,0.0,WeatherDisplay:10.37,2013-02-14 23:44:00,
2013-02-14 18:49:00,38.8,30.5,29.75,West,261,5.2,8.1,72,0.00,OVC,,0.00,0.0,WeatherDisplay:10.37,2013-02-14 23:49:00,
2013-02-14 18:54:00,38.8,30.5,29.75,West,281,8.6,10.4,72,0.00,OVC,,0.00,0.0,WeatherDisplay:10.37,2013-02-14 23:54:00,
2013-02-14 18:59:00,38.8,30.5,29.75,SW,217,4.1,8.1,72,0.00,OVC,,0.00,0.0,WeatherDisplay:10.37,2013-02-14 23:59:00,
2013-02-14 19:04:00,38.6,30.4,29.76,WNW,295,4.7,9.0,72,0.00,BKN,,0.00,0.0,WeatherDisplay:10.37,2013-02-15 00:04:00,
2013-02-14 19:09:00,38.8,30.5,29.76,WNW,285,8.1,10.4,72,0.00,BKN,,0.00,0.0,WeatherDisplay:10.37,2013-02-15 00:09:00,
2013-02-14 19:14:00,38.8,30.2,29.76,SW,236,7.9,10.4,71,0.00,BKN,,0.00,0.0,WeatherDisplay:10.37,2013-02-15 00:14:00,
2013-02-14 19:19:00,38.8,30.2,29.76,West,267,4.0,4.6,71,0.00,BKN,,0.00,0.0,WeatherDisplay:10.37,2013-02-15 00:19:00,
2013-02-14 19:24:00,38.8,30.2,29.76,WNW,294,7.4,13.8,71,0.00,BKN,,0.00,0.0,WeatherDisplay:10.37,2013-02-15 00:24:00,
2013-02-14 19:29:00,38.8,30.2,29.76,NW,309,5.6,9.2,71,0.00,BKN,,0.00,0.0,WeatherDisplay:10.37,2013-02-15 00:29:00,
2013-02-14 19:34:00,38.6,30.0,29.76,West,271,6.4,15.0,71,0.00,BKN,,0.00,0.0,WeatherDisplay:10.37,2013-02-15 00:34:00,
2013-02-14 19:39:00,38.6,30.0,29.76,WNW,288,9.8,10.5,71,0.00,BKN,,0.00,0.0,WeatherDisplay:10.37,2013-02-15 00:39:00,
2013-02-14 19:44:00,38.6,30.0,29.76,WSW,254,8.6,10.5,71,0.00,BKN,,0.00,0.0,WeatherDisplay:10.37,2013-02-15 00:44:00,
2013-02-14 19:49:00,38.6,30.0,29.77,West,275,10.8,10.8,71,0.00,BKN,,0.00,0.0,WeatherDisplay:10.37,2013-02-15 00:49:00,
2013-02-14 19:54:00,38.5,29.9,29.77,WNW,295,8.1,13.8,71,0.00,BKN,,0.00,0.0,WeatherDisplay:10.37,2013-02-15 00:54:00,
2013-02-14 19:59:00,38.5,30.3,29.77,West,272,5.0,5.0,72,0.00,BKN,,0.00,0.0,WeatherDisplay:10.37,2013-02-15 00:59:00,
2013-02-14 20:04:00,38.3,30.1,29.77,WNW,295,10.0,12.0,72,0.00,OVC,,0.00,0.0,WeatherDisplay:10.37,2013-02-15 01:04:00,
2013-02-14 20:09:00,38.3,30.1,29.77,West,274,11.5,13.5,72,0.00,OVC,,0.00,0.0,WeatherDisplay:10.37,2013-02-15 01:09:00,
2013-02-14 20:14:00,38.3,30.1,29.77,West,277,15.3,15.3,72,0.00,OVC,,0.00,0.0,WeatherDisplay:10.37,2013-02-15 01:14:00,
2013-02-14 20:19:00,38.3,30.1,29.77,West,271,7.6,9.2,72,0.00,OVC,,0.00,0.0,WeatherDisplay:10.37,2013-02-15 01:19:00,
2013-02-14 20:24:00,38.3,30.1,29.77,WNW,291,13.9,13.9,72,0.00,OVC,,0.00,0.0,WeatherDisplay:10.37,2013-02-15 01:24:00,
2013-02-14 20:29:00,38.3,30.4,29.77,SSW,213,9.7,11.5,73,0.00,OVC,,0.00,0.0,WeatherDisplay:10.37,2013-02-15 01:29:00,
2013-02-14 20:34:00,38.3,30.4,29.78,WNW,284,18.0,26.5,73,0.00,OVC,,0.00,0.0,WeatherDisplay:10.37,2013-02-15 01:34:00,
2013-02-14 20:39:00,38.2,30.3,29.78,West,264,10.8,10.8,73,0.00,OVC,,0.00,0.0,WeatherDisplay:10.37,2013-02-15 01:39:00,
2013-02-14 20:44:00,38.0,30.1,29.78,WNW,302,9.1,9.2,73,0.00,OVC,,0.00,0.0,WeatherDisplay:10.37,2013-02-15 01:44:00,
2013-02-14 20:49:00,37.9,30.0,29.78,WNW,299,17.0,18.4,73,0.00,OVC,,0.00,0.0,WeatherDisplay:10.37,2013-02-15 01:49:00,
2013-02-14 20:54:00,37.9,30.0,29.78,West,281,11.6,11.6,73,0.00,OVC,,0.00,0.0,WeatherDisplay:10.37,2013-02-15 01:54:00,
2013-02-14 20:59:00,37.8,29.9,29.78,NW,304,15.0,16.5,73,0.00,OVC,,0.00,0.0,WeatherDisplay:10.37,2013-02-15 01:59:00,
2013-02-14 21:04:00,37.6,29.7,29.79,WNW,292,14.0,16.1,73,0.00,OVC,,0.00,0.0,WeatherDisplay:10.37,2013-02-15 02:04:00,
2013-02-14 21:09:00,37.3,29.4,29.79,WNW,301,11.9,11.9,73,0.00,OVC,,0.00,0.0,WeatherDisplay:10.37,2013-02-15 02:09:00,
2013-02-14 21:14:00,37.3,29.1,29.79,WNW,299,19.7,24.2,72,0.00,OVC,,0.00,0.0,WeatherDisplay:10.37,2013-02-15 02:14:00,
2013-02-14 21:19:00,37.3,28.8,29.80,WNW,291,13.3,15.0,71,0.00,OVC,,0.00,0.0,WeatherDisplay:10.37,2013-02-15 02:19:00,
2013-02-14 21:24:00,37.2,29.0,29.80,NW,316,13.1,15.0,72,0.00,OVC,,0.00,0.0,WeatherDisplay:10.37,2013-02-15 02:24:00,
2013-02-14 21:29:00,37.0,28.8,29.80,WNW,289,16.7,24.2,72,0.00,OVC,,0.00,0.0,WeatherDisplay:10.37,2013-02-15 02:29:00,
2013-02-14 21:34:00,37.0,28.8,29.81,WNW,301,15.6,16.1,72,0.00,OVC,,0.00,0.0,WeatherDisplay:10.37,2013-02-15 02:34:00,
2013-02-14 21:39:00,36.9,28.7,29.81,West,260,17.7,17.7,72,0.00,OVC,,0.00,0.0,WeatherDisplay:10.37,2013-02-15 02:39:00,
2013-02-14 21:44:00,36.8,28.6,29.81,NNW,328,17.5,18.0,72,0.00,OVC,,0.00,0.0,WeatherDisplay:10.37,2013-02-15 02:44:00,
2013-02-14 21:49:00,36.8,28.6,29.82,West,274,16.5,18.4,72,0.00,OVC,,0.00,0.0,WeatherDisplay:10.37,2013-02-15 02:49:00,
2013-02-14 21:54:00,36.6,28.1,29.82,WNW,282,19.8,19.8,71,0.00,OVC,,0.00,0.0,WeatherDisplay:10.37,2013-02-15 02:54:00,
2013-02-14 21:59:00,36.5,28.0,29.82,West,281,11.3,11.3,71,0.00,OVC,,0.00,0.0,WeatherDisplay:10.37,2013-02-15 02:59:00,
2013-02-14 22:04:00,36.5,28.0,29.82,West,277,11.8,16.5,71,0.00,OVC,,0.00,0.0,WeatherDisplay:10.37,2013-02-15 03:04:00,
2013-02-14 22:09:00,36.5,28.0,29.82,WSW,247,16.9,25.5,71,0.00,OVC,,0.00,0.0,WeatherDisplay:10.37,2013-02-15 03:09:00,
2013-02-14 22:14:00,36.3,27.8,29.82,WNW,298,10.2,10.5,71,0.00,OVC,,0.00,0.0,WeatherDisplay:10.37,2013-02-15 03:14:00,
2013-02-14 22:19:00,36.2,28.0,29.82,WNW,285,5.7,9.2,72,0.00,OVC,,0.00,0.0,WeatherDisplay:10.37,2013-02-15 03:19:00,
2013-02-14 22:24:00,36.0,27.8,29.82,West,280,18.2,20.7,72,0.00,OVC,,0.00,0.0,WeatherDisplay:10.37,2013-02-15 03:24:00,
2013-02-14 22:29:00,35.9,27.7,29.82,NW,312,9.5,12.0,72,0.00,OVC,,0.00,0.0,WeatherDisplay:10.37,2013-02-15 03:29:00,
2013-02-14 22:34:00,35.9,27.7,29.82,West,270,11.6,11.6,72,0.00,OVC,,0.00,0.0,WeatherDisplay:10.37,2013-02-15 03:34:00,
2013-02-14 22:39:00,35.9,27.7,29.82,NW,304,13.4,16.1,72,0.00,OVC,,0.00,0.0,WeatherDisplay:10.37,2013-02-15 03:39:00,
2013-02-14 22:44:00,35.9,27.7,29.82,WNW,289,11.0,11.0,72,0.00,OVC,,0.00,0.0,WeatherDisplay:10.37,2013-02-15 03:44:00,
2013-02-14 22:49:00,35.9,27.7,29.82,West,275,17.9,17.9,72,0.00,OVC,,0.00,0.0,WeatherDisplay:10.37,2013-02-15 03:49:00,
2013-02-14 22:54:00,35.9,27.4,29.82,WNW,289,18.9,21.0,71,0.00,OVC,,0.00,0.0,WeatherDisplay:10.37,2013-02-15 03:54:00,
2013-02-14 22:59:00,35.9,27.4,29.82,WNW,294,14.3,14.3,71,0.00,OVC,,0.00,0.0,WeatherDisplay:10.37,2013-02-15 03:59:00,
2013-02-14 23:04:00,35.8,27.7,29.83,West,261,7.7,10.4,72,0.00,OVC,,0.00,0.0,WeatherDisplay:10.37,2013-02-15 04:04:00,
2013-02-14 23:09:00,35.8,27.3,29.83,WSW,246,13.0,13.0,71,0.00,OVC,,0.00,0.0,WeatherDisplay:10.37,2013-02-15 04:09:00,
2013-02-14 23:14:00,35.8,27.7,29.83,WNW,295,10.3,15.0,72,0.00,OVC,,0.00,0.0,WeatherDisplay:10.37,2013-02-15 04:14:00,
2013-02-14 23:19:00,35.8,27.7,29.83,WNW,301,13.9,16.1,72,0.00,OVC,,0.00,0.0,WeatherDisplay:10.37,2013-02-15 04:19:00,
2013-02-14 23:24:00,35.8,27.7,29.83,WNW,284,9.2,10.5,72,0.00,OVC,,0.00,0.0,WeatherDisplay:10.37,2013-02-15 04:24:00,
2013-02-14 23:29:00,35.6,27.5,29.83,West,275,11.4,11.5,72,0.00,OVC,,0.00,0.0,WeatherDisplay:10.37,2013-02-15 04:29:00,
2013-02-14 23:34:00,35.6,27.8,29.84,WNW,291,8.3,9.2,73,0.00,OVC,,0.00,0.0,WeatherDisplay:10.37,2013-02-15 04:34:00,
2013-02-14 23:39:00,35.6,27.8,29.84,WNW,296,9.9,10.4,73,0.00,OVC,,0.00,0.0,WeatherDisplay:10.37,2013-02-15 04:39:00,
2013-02-14 23:44:00,35.5,27.7,29.84,WNW,298,15.2,18.0,73,0.00,OVC,,0.00,0.0,WeatherDisplay:10.37,2013-02-15 04:44:00,
2013-02-14 23:49:00,35.6,27.8,29.84,NW,309,12.0,12.0,73,0.00,OVC,,0.00,0.0,WeatherDisplay:10.37,2013-02-15 04:49:00,
2013-02-14 23:54:00,35.5,27.7,29.84,West,261,9.3,9.3,73,0.00,OVC,,0.00,0.0,WeatherDisplay:10.37,2013-02-15 04:54:00,
2013-02-14 23:59:00,35.5,27.7,29.84,NW,309,10.3,15.0,73,0.00,OVC,,0.00,0.0,WeatherDisplay:10.37,2013-02-15 04:59:00,